This demonstration page uses our WeatherBlox Daily Observations layout. Learn more.

41.55636, -103.73856

Hourly Observations for July 26, 2019

Temp ( °F °C ) Dew Point ( °F °C ) Humidity (%) Winds ( mph kmh ) Pressure ( in mb ) Visibility ( mi km ) Precip ( " mm )
12:53 am 00:53 Clear 69 20.6 61 16.1 76 76 Calm 29.88 1012 10 16.09344 0 0
1:53 am 01:53 Clear 66 18.9 62 16.7 87 87 E 6 9 29.88 1012 10 16.09344 0 0
2:53 am 02:53 Clear 66 18.9 62 16.7 87 87 E 3 6 29.88 1012 10 16.09344 0 0
3:53 am 03:53 Clear 66 18.9 62 16.7 87 87 E 8 13 29.85 1011 10 16.09344 0 0
4:53 am 04:53 Clear 65 18.3 63 17.2 93 93 Calm 29.88 1012 10 16.09344 0 0
5:53 am 05:53 Sunny 64 17.8 62 16.7 93 93 Calm 29.88 1012 8 12.874752 0 0
6:53 am 06:53 Sunny 66 18.9 63 17.2 90 90 ESE 3 6 29.91 1013 7 11.265408 0 0
7:53 am 07:53 Sunny 72 22.2 62 16.7 71 71 WNW 10 17 29.94 1014 7 11.265408 0 0
8:53 am 08:53 Sunny 74 23.3 61 16.1 64 64 W 10 17 29.97 1015 10 16.09344 0 0
9:53 am 09:53 Sunny 79 26.1 65 18.3 62 62 WNW 8 13 29.97 1015 10 16.09344 0 0
10:53 am 10:53 Sunny 84 28.9 65 18.3 53 53 WNW 6 9 29.97 1015 10 16.09344 0 0
11:53 am 11:53 Sunny 87 30.6 64 17.8 46 46 WNW 6 9 29.94 1014 10 16.09344 0 0
12:53 pm 12:53 Sunny 89 31.7 63 17.2 42 42 VRB 6 9 29.94 1014 10 16.09344 0 0
1:53 pm 13:53 Sunny 91 32.8 63 17.2 39 39 VRB 5 7 29.94 1014 10 16.09344 0 0
2:53 pm 14:53 Sunny 93 33.9 57 13.9 30 30 E 7 11 29.91 1013 10 16.09344 0 0
3:53 pm 15:53 Sunny 94 34.4 55 12.8 27 27 E 7 11 29.88 1012 10 16.09344 0 0
4:53 pm 16:53 Sunny 95 35 57 13.9 28 28 VRB 3 6 29.88 1012 10 16.09344 0 0
5:53 pm 17:53 Sunny 92 33.3 60 15.6 34 34 Calm 29.88 1012 10 16.09344 0 0
6:34 pm 18:34 Sunny 82 28 64 18 55 55 E 16 26 29.8 1009 10 16.09344 0 0
6:53 pm 18:53 Sunny 82 27.8 63 17.2 53 53 E 12 19 29.94 1014 10 16.09344 0 0
7:53 pm 19:53 Sunny 79 26.1 63 17.2 58 58 E 7 11 29.91 1013 10 16.09344 0 0
8:43 pm 20:43 Mostly Cloudy with Nearby Thunderstorms 77 25 64 17.8 64 64 VRB 5 7 29.88 1012 10 16.09344 0 0
8:53 pm 20:53 Partly Cloudy 77 25 64 17.8 64 64 SSW 6 9 29.97 1015 10 16.09344 0 0
9:53 pm 21:53 Mostly Clear 74 23.3 63 17.2 69 69 N 13 20 29.97 1015 10 16.09344 0 0
10:53 pm 22:53 Clear 75 23.9 62 16.7 64 64 NNW 7 11 29.97 1015 10 16.09344 0 0
11:53 pm 23:53 Partly Cloudy 73 22.8 63 17.2 71 71 S 9 15 29.94 1014 10 16.09344 0 0

Powered by AerisWeather